This is the latest recevied weather packets stored in our database for station/object KD0SBN-3. If no packets are shown the sender has not sent any weather packets the latest 10 day(s).
| Time | Temp. | Humidity | Pressure | Rain* | Wind** | Luminosity | Snow |
|---|---|---|---|---|---|---|---|
| 1777675970 | 2.22° C | 88% | 1026.8 hPa | 0 mm | - | 139 W/m² | - |
| 1777675665 | 2.78° C | 89% | 1026.7 hPa | 0 mm | - | 157 W/m² | - |
| 1777675363 | 2.78° C | 84% | 1026.8 hPa | 0 mm | - | 172 W/m² | - |
| 1777675059 | 2.78° C | 88% | 1026.6 hPa | 0 mm | - | 197 W/m² | - |
| 1777674756 | 3.33° C | 85% | 1026.8 hPa | 0 mm | - | 192 W/m² | - |
| 1777674452 | 3.89° C | 87% | 1026.6 hPa | 0 mm | - | 245 W/m² | - |
| 1777674150 | 2.78° C | 91% | 1026.7 hPa | 0 mm | - | 236 W/m² | - |
| 1777673846 | 1.67° C | 91% | 1026.7 hPa | 0 mm | - | 207 W/m² | - |
| 1777673543 | 2.22° C | 90% | 1026.6 hPa | 0 mm | - | 226 W/m² | - |
| 1777673240 | 2.22° C | 91% | 1026.8 hPa | 0 mm | - | 228 W/m² | - |
| 1777672938 | 2.22° C | 91% | 1026.7 hPa | 0 mm | - | 235 W/m² | - |
| 1777672635 | 1.67° C | 88% | 1026.8 hPa | 0 mm | - | 295 W/m² | - |
| 1777672330 | 1.11° C | 89% | 1026.7 hPa | 0 mm | - | 157 W/m² | - |
| 1777672025 | 1.67° C | 92% | 1026.8 hPa | 0 mm | - | 107 W/m² | - |
| 1777671721 | 1.67° C | 91% | 1026.7 hPa | 0 mm | - | 82 W/m² | - |
| 1777671417 | 2.22° C | 87% | 1026.6 hPa | 0 mm | - | 145 W/m² | - |
| 1777671113 | 3.33° C | 86% | 1026.8 hPa | 0 mm | - | 217 W/m² | - |
| 1777670810 | 3.33° C | 82% | 1026.8 hPa | 0 mm | - | 346 W/m² | - |
| 1777670507 | 2.78° C | 82% | 1027 hPa | 0 mm | - | 746 W/m² | - |
| 1777670204 | 2.22° C | 83% | 1027 hPa | 0 mm | - | 307 W/m² | - |
| 1777669901 | 1.67° C | 86% | 1027 hPa | 0 mm | - | 251 W/m² | - |
| 1777669598 | 1.67° C | 90% | 1027 hPa | 0 mm | - | 217 W/m² | - |
| 1777669295 | 1.67° C | 91% | 1027.2 hPa | 0 mm | - | 240 W/m² | - |
| 1777668991 | 1.11° C | 90% | 1027.2 hPa | 0 mm | - | 216 W/m² | - |
| 1777668689 | 1.11° C | 91% | 1027.2 hPa | 0 mm | - | 188 W/m² | - |
* Rain latest hour (hover to see other rain measurements)
** Current wind speed in m/s (hover to see current wind gust speed)